G4CVN Weather Reports


Display with metric or nautical units.
time (UTC)temp
F
wind
direction
speed
MPH
gust
MPH
rain 1hr
in
rain 24hr
in
rain mn
in
humidity
%
barometer
mb
20260906155016 71 248 2.0 4.0 0.00 0.00 0.00 66 1023.8
20260906154035 71 203 2.0 5.0 0.00 0.00 0.00 64 1023.8
20260906153016 71 248 2.0 4.0 0.00 0.00 0.00 63 1024.0
20260906152017 72 225 2.0 5.0 0.00 0.00 0.00 63 1023.9
20260906151015 72 203 2.0 8.0 0.00 0.00 0.00 62 1023.9
20260906150015 72 203 2.0 5.0 0.00 0.00 0.00 61 1023.9
20260906145019 73 225 2.0 5.0 0.00 0.00 0.00 60 1024.0
20260906144016 74 225 2.0 5.0 0.00 0.00 0.00 60 1024.1
20260906143036 74 225 2.0 5.0 0.00 0.00 0.00 61 1024.0
20260906142017 75 248 2.0 6.0 0.00 0.00 0.00 61 1024.0
20260906141016 75 203 2.0 5.0 0.00 0.00 0.00 59 1024.1
20260906140015 76 203 2.0 4.0 0.00 0.00 0.00 59 1024.1
20260906135018 76 225 1.0 5.0 0.00 0.00 0.00 57 1024.3
20260906134016 76 203 1.0 4.0 0.00 0.00 0.00 58 1024.6
20260906133016 76 225 1.0 5.0 0.00 0.00 0.00 57 1024.7
20260906132016 76 225 2.0 4.0 0.00 0.00 0.00 57 1024.8
20260906131016 77 203 2.0 5.0 0.00 0.00 0.00 56 1024.8
20260906130016 77 248 1.0 3.0 0.00 0.00 0.00 55 1024.9
20260906125036 78 203 2.0 5.0 0.00 0.00 0.00 54 1024.8
20260906124016 78 225 3.0 5.0 0.00 0.00 0.00 52 1024.9
20260906123017 79 225 2.0 7.0 0.00 0.00 0.00 52 1024.9
20260906122017 80 248 2.0 5.0 0.00 0.00 0.00 53 1025.0
20260906121016 79 248 2.0 7.0 0.00 0.00 0.00 54 1025.1
20260906120017 79 248 3.0 6.0 0.00 0.00 0.00 51 1025.3
20260906115015 78 248 3.0 6.0 0.00 0.00 0.00 54 1025.4
20260906114036 78 225 3.0 6.0 0.00 0.00 0.00 53 1025.5
20260906113016 77 225 2.0 5.0 0.00 0.00 0.00 56 1025.7
20260906112057 76 225 2.0 6.0 0.00 0.00 0.00 59 1025.7
20260906111018 76 203 3.0 6.0 0.00 0.00 0.00 59 1025.8
20260906110016 75 225 2.0 5.0 0.00 0.00 0.00 61 1025.9
20260906105036 75 248 2.0 5.0 0.00 0.00 0.00 60 1025.9
20260906104016 75 203 2.0 8.0 0.00 0.00 0.00 61 1026.1
20260906103016 74 203 2.0 4.0 0.00 0.00 0.00 62 1026.1
20260906102016 73 225 2.0 6.0 0.00 0.00 0.00 63 1026.1
20260906101036 73 248 2.0 6.0 0.00 0.00 0.00 64 1026.2
20260906100016 73 203 2.0 5.0 0.00 0.00 0.00 65 1026.2
20260906095017 72 203 2.0 5.0 0.00 0.00 0.00 67 1026.1
20260906094016 71 248 2.0 6.0 0.00 0.00 0.00 67 1026.2
20260906093016 71 248 3.0 6.0 0.00 0.00 0.00 69 1026.3
20260906092016 70 225 2.0 5.0 0.00 0.00 0.00 70 1026.4
20260906091036 70 225 2.0 5.0 0.00 0.00 0.00 72 1026.4
20260906090017 69 248 2.0 5.0 0.00 0.00 0.00 73 1026.5
20260906085016 67 248 2.0 9.0 0.00 0.00 0.00 75 1026.5
20260906084016 66 225 3.0 6.0 0.00 0.00 0.00 79 1026.6
20260906083036 65 248 1.0 4.0 0.00 0.00 0.00 86 1026.5
20260906082016 64 203 1.0 3.0 0.00 0.00 0.00 89 1026.7
20260906081036 63 203 1.0 3.0 0.00 0.00 0.00 91 1026.7
20260906080017 62 225 1.0 3.0 0.00 0.00 0.00 93 1026.8
20260906075016 61 293 1.0 4.0 0.00 0.00 0.00 95 1026.8
20260906074016 60 225 1.0 3.0 0.00 0.00 0.00 96 1026.8
20260906073016 59 0.0 0.0 0.00 0.00 0.00 96 1026.9
20260906072016 58 0.0 0.0 0.00 0.00 0.00 96 1027.0
20260906071036 57 0.0 0.0 0.00 0.00 0.00 96 1027.0
20260906070016 56 0.0 0.0 0.00 0.00 0.00 96 1027.2
20260906065016 55 0.0 0.0 0.00 0.00 0.00 96 1027.2
20260906064016 54 0.0 0.0 0.00 0.00 0.00 95 1027.4
20260906063036 54 0.0 0.0 0.00 0.00 0.00 94 1027.4
20260906062016 54 0.0 0.0 0.00 0.00 0.00 94 1027.4
20260906061036 54 0.0 0.0 0.00 0.00 0.00 93 1027.5
20260906060016 54 0.0 0.0 0.00 0.00 0.00 93 1027.5
20260906055016 54 0.0 0.0 0.00 0.00 0.00 93 1027.6
20260906054016 55 0.0 0.0 0.00 0.00 0.00 94 1027.4
20260906053016 55 0.0 0.0 0.00 0.00 0.00 94 1027.5
20260906052016 55 0.0 0.0 0.00 0.00 0.00 94 1027.6
20260906051016 55 0.0 0.0 0.00 0.00 0.00 94 1027.5
20260906050016 54 0.0 0.0 0.00 0.00 0.00 94 1027.7
20260906045016 54 0.0 0.0 0.00 0.00 0.00 94 1027.7
20260906044016 54 0.0 0.0 0.00 0.00 0.00 94 1027.8
20260906043016 54 0.0 0.0 0.00 0.00 0.00 94 1027.8
20260906042016 54 0.0 0.0 0.00 0.00 0.00 94 1027.9
20260906041016 54 0.0 0.0 0.00 0.00 0.00 94 1028.1
20260906040036 54 0.0 0.0 0.00 0.00 0.00 94 1028.1
20260906035016 54 0.0 0.0 0.00 0.00 0.00 94 1028.3
20260906034016 54 0.0 0.0 0.00 0.00 0.00 94 1028.3
20260906033016 54 0.0 0.0 0.00 0.00 0.00 94 1028.3
20260906032016 54 0.0 0.0 0.00 0.00 0.00 94 1028.5
20260906031017 54 0.0 0.0 0.00 0.00 0.00 93 1028.3
20260906030036 54 0.0 0.0 0.00 0.00 0.00 93 1028.3
20260906025037 54 0.0 0.0 0.00 0.00 0.00 94 1028.4
20260906024016 53 0.0 0.0 0.00 0.00 0.00 94 1028.4
20260906023016 53 0.0 0.0 0.00 0.00 0.00 94 1028.5
20260906022016 52 0.0 0.0 0.00 0.00 0.00 93 1028.7
20260906021016 52 0.0 0.0 0.00 0.00 0.00 92 1029.0
20260906020017 52 0.0 0.0 0.00 0.00 0.00 92 1029.1
20260906015036 52 0.0 0.0 0.00 0.00 0.00 92 1029.3
20260906014016 52 0.0 0.0 0.00 0.00 0.00 92 1029.3
20260906013016 52 0.0 0.0 0.00 0.00 0.00 91 1029.2
20260906012017 53 0.0 0.0 0.00 0.00 0.00 91 1029.4
20260906011017 53 0.0 0.0 0.00 0.00 0.00 92 1029.4
20260906010017 53 0.0 0.0 0.00 0.00 0.00 92 1029.5
20260906005016 53 0.0 0.0 0.00 0.00 0.00 92 1029.6
20260906004017 54 0.0 0.0 0.00 0.00 0.00 92 1029.6
20260906003017 54 0.0 0.0 0.00 0.00 0.00 92 1029.5
20260906002016 54 0.0 0.0 0.00 0.00 0.00 92 1029.7
20260906001057 54 0.0 0.0 0.00 0.00 0.00 92 1029.8
20260906000036 54 0.0 0.0 0.00 0.00 0.00 91 1029.8
20260905235016 54 0.0 0.0 0.00 0.00 0.00 91 1029.9
20260905234037 54 0.0 0.0 0.00 0.00 0.00 91 1030.0
20260905233016 54 0.0 0.0 0.00 0.00 0.00 91 1029.9
20260905232016 54 0.0 0.0 0.00 0.00 0.00 90 1029.8
20260905231019 54 0.0 0.0 0.00 0.00 0.00 90 1029.6
20260905230116 54 0.0 0.0 0.00 0.00 0.00 90 1029.5
20260905225017 54 0.0 0.0 0.00 0.00 0.00 90 1029.7
20260905224017 54 0.0 0.0 0.00 0.00 0.00 90 1029.6
20260905223016 54 0.0 0.0 0.00 0.00 0.00 89 1029.5
20260905222016 54 0.0 0.0 0.00 0.00 0.00 88 1029.5
20260905221016 54 0.0 0.0 0.00 0.00 0.00 88 1029.4
20260905220016 55 0.0 0.0 0.00 0.00 0.00 87 1029.5
20260905215016 55 0.0 0.0 0.00 0.00 0.00 87 1029.6
20260905214017 55 0.0 0.0 0.00 0.00 0.00 88 1029.4
20260905213016 55 0.0 0.0 0.00 0.00 0.00 86 1029.4
20260905212017 55 0.0 0.0 0.00 0.00 0.00 86 1029.4
20260905211016 56 0.0 0.0 0.00 0.00 0.00 86 1029.6
20260905210016 56 0.0 0.0 0.00 0.00 0.00 84 1029.5
20260905205036 57 0.0 0.0 0.00 0.00 0.00 84 1029.5
20260905204017 57 0.0 0.0 0.00 0.00 0.00 83 1029.3
20260905203018 58 0.0 0.0 0.00 0.00 0.00 82 1029.4
20260905202016 58 0.0 0.0 0.00 0.00 0.00 81 1029.4
20260905201016 59 0.0 0.0 0.00 0.00 0.00 81 1029.4
20260905200017 60 0.0 0.0 0.00 0.00 0.00 80 1029.3
20260905195036 60 0.0 1.0 0.00 0.00 0.00 79 1029.3
20260905194017 61 0.0 1.0 0.00 0.00 0.00 77 1029.2
20260905193058 62 0.0 1.0 0.00 0.00 0.00 75 1029.2
20260905192016 62 0.0 1.0 0.00 0.00 0.00 74 1029.2
20260905191018 63 0.0 1.0 0.00 0.00 0.00 73 1029.0
20260905190016 64 0.0 2.0 0.00 0.00 0.00 72 1028.8
20260905185017 64 225 1.0 2.0 0.00 0.00 0.00 70 1028.7
20260905184017 65 225 1.0 2.0 0.00 0.00 0.00 69 1028.8
20260905183016 66 203 1.0 3.0 0.00 0.00 0.00 68 1028.8
20260905182016 67 203 1.0 4.0 0.00 0.00 0.00 67 1028.8
20260905181017 67 203 2.0 4.0 0.00 0.00 0.00 66 1028.7
20260905180036 67 225 2.0 5.0 0.00 0.00 0.00 66 1028.8
20260905175016 67 203 2.0 4.0 0.00 0.00 0.00 66 1028.7
20260905174017 67 225 2.0 3.0 0.00 0.00 0.00 65 1028.7
20260905173016 67 203 2.0 5.0 0.00 0.00 0.00 65 1028.5
20260905172036 68 203 3.0 6.0 0.00 0.00 0.00 65 1028.5
20260905171016 68 225 3.0 5.0 0.00 0.00 0.00 64 1028.6
20260905170016 69 248 2.0 6.0 0.00 0.00 0.00 63 1028.5
20260905165016 69 225 2.0 4.0 0.00 0.00 0.00 62 1028.5
20260905164016 69 225 3.0 7.0 0.00 0.00 0.00 61 1028.4
20260905163037 70 203 3.0 7.0 0.00 0.00 0.00 60 1028.4
20260905162037 70 203 3.0 7.0 0.00 0.00 0.00 59 1028.4
20260905161016 71 225 3.0 6.0 0.00 0.00 0.00 57 1028.5
20260905160016 72 225 3.0 8.0 0.00 0.00 0.00 56 1028.5